This demonstration page uses our WeatherBlox Daily Observations layout. Learn more.

Left ArrowRight Arrow

Hourly Observations for April 6, 2022

Temp ( °F °C ) Dew Point ( °F °C ) Humidity (%) Winds ( mph kmh ) Pressure ( in mb ) Visibility ( mi km ) Precip ( " mm )
12:53 am 00:53 Clear 61 16.1 21 -6.1 21 21 NNW 8 13 30.16 1022 10 16 0.00 0.00
1:53 am 01:53 Clear 61 16.1 20 -6.7 20 20 NNW 9 15 30.17 1022 10 16 0.00 0.00
2:53 am 02:53 Clear 60 15.6 21 -6.1 22 22 NNW 12 19 30.17 1022 10 16 0.00 0.00
3:53 am 03:53 Clear 59 15 20 -6.7 22 22 NNW 9 15 30.17 1022 10 16 0.00 0.00
4:53 am 04:53 Clear 58 14.4 20 -6.7 23 23 NNW 6 9 30.17 1022 10 16 0.00 0.00
5:53 am 05:53 Clear 59 15 21 -6.1 23 23 N 10 17 30.17 1022 10 16 0.00 0.00
6:53 am 06:53 Sunny 58 14.4 21 -6.1 24 24 NNW 9 15 30.18 1022 10 16 0.00 0.00
7:53 am 07:53 Sunny 61 16.1 22 -5.6 22 22 N 10 17 30.19 1022 10 16 0.00 0.00
8:53 am 08:53 Sunny 64 17.8 22 -5.6 20 20 N 14 22 30.20 1023 10 16 0.00 0.00
9:53 am 09:53 Sunny 68 20 22 -5.6 17 17 N 16 26 30.19 1023 10 16 0.00 0.00
10:53 am 10:53 Sunny 72 22.2 22 -5.6 15 15 N 13 20 30.19 1022 10 16 0.00 0.00
12:53 pm 12:53 Sunny 80 26.7 24 -4.4 13 13 NNW 12 19 30.14 1021 10 16 0.00 0.00
1:53 pm 13:53 Sunny 83 28.3 25 -3.9 12 12 N 10 17 30.12 1020 10 16 0.00 0.00
2:53 pm 14:53 Sunny 87 30.6 26 -3.3 11 11 N 15 24 30.10 1019 10 16 0.00 0.00
3:53 pm 15:53 Sunny 87 30.6 24 -4.4 10 10 N 9 15 30.07 1018 10 16 0.00 0.00
4:53 pm 16:53 Sunny 89 31.7 25 -3.9 10 10 N 9 15 30.06 1018 10 16 0.00 0.00
5:53 pm 17:53 Sunny 88 31.1 26 -3.3 10 10 N 8 13 30.05 1018 10 16 0.00 0.00
6:53 pm 18:53 Sunny 86 30 28 -2.2 12 12 NNW 5 7 30.05 1018 10 16 0.00 0.00
7:53 pm 19:53 Clear 80 26.7 30 -1.1 16 16 NNW 6 9 30.04 1017 10 16 0.00 0.00
8:53 pm 20:53 Clear 75 23.9 31 -0.6 20 20 NW 6 9 30.06 1018 10 16 0.00 0.00
9:53 pm 21:53 Clear 69 20.6 34 1.1 27 27 N 3 6 30.08 1019 10 16 0.00 0.00
10:53 pm 22:53 Clear 64 17.8 36 2.2 35 35 NNW 3 6 30.09 1019 10 16 0.00 0.00
11:53 pm 23:53 Clear 59 15 39 3.9 48 48 NW 3 6 30.09 1019 10 16 0.00 0.00

Powered by AerisWeather